{"data":{"norad_id":69790,"intl_designator":"2026-151AD","name":"KUIPER-00647","alt_names":[],"object_type":"PAYLOAD","status":"ACTIVE","operator":null,"country":"US","launch_date":"2026-07-02","launch_site_code":"AFETR","launch_vehicle":null,"mission":null,"orbit_class":"UNKNOWN","rcs_meters":null,"size_class":null,"mass_kg":null,"dimensions":null,"purposes":[],"wikipedia_slug":null,"has_3d_model":false,"image_url":null,"decayed_at":null,"tle_current":{"epoch":"2026-09-20T04:00:03.000096Z","epoch_age_seconds":54274,"freshness":"FRESH","line1":"1 69790U 26151AD  26263.16670139 -.00064295  00000+0 -79225-2 0  9992","line2":"2 69790  51.9004 225.3056 0006263  64.0131 139.7513 14.82775822  4512","mean_motion":14.82775822,"eccentricity":0.0006263,"inclination_deg":51.9004,"raan_deg":225.3056,"arg_perigee_deg":64.0131,"mean_anomaly_deg":139.7513,"bstar":-0.0079225,"rev_number":451,"period_min":97.115152448176,"perigee_km":616.1925915687,"apogee_km":624.95917932902,"semimajor_km":6998.7128854489,"source":"CELESTRAK","updated_at":"2026-09-20T09:00:25.115808Z"}}}